Location: G�migny
(47.9646°N, 1.6950°E)
Time: 07:01:21
(UTC+00:00)

Cosmos 1076 Rocket - Pass Details

Date: 23 October 2019
Orbit: 589 x 613 km, 82.5° (Epoch: 13 November)

Event Time Altitude Azimuth Distance (km) Brightness Sun altitude
Rises 17:39:41 0° 357° (N) 2,888 6.9 -8.9°
Reaches altitude 10° 17:42:05 10° 7° (N) 1,975 6.0 -9.3°
Maximum altitude 17:46:05 34° 73° (ENE) 1,000 4.1 -9.9°
Drops below altitude 10° 17:50:03 10° 140° (SE) 1,949 5.8 -10.6°
Sets 17:52:24 0° 149° (SSE) 2,843 6.7 -11.0°
